COSMO-SKYMED 4

Last updated on Thu Oct 30 2025 00:02:31 GMT+0000 (Coordinated Universal Time)

1 37216U 10060A 25302.49033701 .00000832 00000+0 11107-3 0 9990 2 37216 97.8887 124.4662 0001462 85.0548 275.0831 14.82158748810391
UTC large
Height (km)
Speed (km/s)
/
Latitude / Longitude
Inclination (degrees)
Orbital Period (minutes)
Azimuth
Elevation
Range (km)
Doppler Factor

Next 0 passes for location: London (51.5072 / 0.1276)

Sorry there are no passes over London.